Location: Limerick
(52.6650°N, 8.6230°W)
Time: 20:02:09
(UTC+01:00)

ISS - Pass Details

Date: 28 May 2017
Orbit: 401 x 408 km, 51.6° (Epoch: 26 June)

Event Time Altitude Azimuth Distance (km) Brightness Sun altitude
Rises 02:10:08 0° 280° (W) 2,340 0.1 -15.4°
Reaches altitude 10° 02:12:17 10° 273° (W) 1,475 -1.1 -15.3°
Maximum altitude 02:15:25 41° 202° (SSW) 610 -3.4 -15.3°
Enters shadow 02:16:10 34° 166° (SSE) 689 -3.2 -15.2°
